Air Force Academy, CO

5:08 PM MST on November 18, 2019 (GMT -0700)
Usaf Academy

Weather History for KAFF - May, 2019

Change the Weather History Date:

Tuesday, May 14, 2019

  Actual Average Record
Temperature  
Mean Temperature 57 °F -  
Max Temperature 75 °F 65 °F 79 °F (2013)
Min Temperature 39 °F 38 °F 24 °F (2014)
Degree Days  
Heating Degree Days 8    
Growing Degree Days 7 (Base 50)    
Moisture  
Dew Point 29 °F    
Average Humidity 32    
Maximum Humidity 77    
Minimum Humidity 15    
Precipitation  
Precipitation 0.00 in - - ()
Sea Level Pressure  
Sea Level Pressure 29.92 in    
Wind  
Wind Speed 9 mph (North)    
Max Wind Speed 18 mph    
Max Gust Speed 23 mph    
Visibility 10 miles    
Events Rain    
Averages and records for this station are not official NWS values.
T = Trace of Precipitation, MM = Missing Value Source: NWS Daily Summary

Daily Weather History Graph

Daily Weather History Graph

Search for Another Location

Airport or City:

Astronomy

May. 14, 2019 Rise Set
Actual Time 5:47 AM MDT 8:04 PM MDT
Civil Twilight 5:17 AM MDT 8:34 PM MDT
Nautical Twilight 4:40 AM MDT 9:11 PM MDT
Astronomical Twilight 4:00 AM MDT 9:51 PM MDT
Moon 3:31 PM MDT (5/14) 3:38 AM MDT (5/14)
Length of Visible Light 15h 16m
Length of Day
14h 16m
Waxing Gibbous, 79% of the Moon is Illuminated
May 14
Waxing Gibbous
May 18
Full
May 26
Last Quarter
Jun 3
New
Jun 10
First Quarter

Hourly Weather History & Observations

Time (MDT) Temp. Windchill Dew Point Humidity Pressure Visibility Wind Dir Wind Speed Gust Speed Precip Events Conditions
12:58 AM 40.8 °F 35.6 °F 33.3 °F 74% 29.92 in 10.0 mi NNW 8.1 mph - N/A   Clear
1:58 AM 39.2 °F 33.6 °F 32.5 °F 77% 29.93 in 10.0 mi NNW 8.1 mph - N/A   Clear
2:58 AM 41.2 °F 37.3 °F 32.9 °F 72% 29.91 in 10.0 mi NNW 5.8 mph - N/A   Clear
3:58 AM 39.9 °F 33.9 °F 32.0 °F 73% 29.93 in 10.0 mi North 9.2 mph - N/A   Clear
4:58 AM 39.0 °F 32.3 °F 31.5 °F 74% 29.93 in 10.0 mi North 10.4 mph - N/A   Clear
6:58 AM 47.7 °F - 33.3 °F 57% 29.95 in 10.0 mi North 8.1 mph - N/A   Clear
7:58 AM 59.5 °F - 34.0 °F 38% 29.92 in 10.0 mi NNE 4.6 mph - N/A   Clear
8:58 AM 69.1 °F - 29.7 °F 23% 29.89 in 10.0 mi NNE 6.9 mph - N/A   Clear
9:58 AM 72.0 °F - 24.8 °F 17% 29.91 in 10.0 mi NNE 10.4 mph - N/A   Scattered Clouds
10:38 AM 73.4 °F - 24.8 °F 16% 29.92 in 10.0 mi North 13.8 mph 21.9 mph N/A   Scattered Clouds
10:49 AM 73.4 °F - 24.8 °F 16% 29.94 in 10.0 mi NNW 13.8 mph 20.7 mph N/A   Mostly Cloudy
10:58 AM 73.4 °F - 24.4 °F 16% 29.94 in 10.0 mi NNW 9.2 mph 20.7 mph N/A   Scattered Clouds
11:58 AM 75.6 °F - 24.6 °F 15% 29.93 in 10.0 mi NE 4.6 mph - N/A   Partly Cloudy
12:27 PM 71.6 °F - 23.0 °F 16% 29.94 in 10.0 mi NNW 13.8 mph 20.7 mph N/A Rain Light Rain Showers
12:58 PM 67.5 °F - 31.3 °F 26% 29.98 in 10.0 mi South 13.8 mph - N/A   Mostly Cloudy
1:58 PM 71.6 °F - 27.1 °F 19% 29.96 in 10.0 mi SE 12.7 mph - N/A   Mostly Cloudy
2:34 PM 71.6 °F - 28.4 °F 20% 29.96 in 10.0 mi West 12.7 mph 21.9 mph N/A   Scattered Clouds
2:58 PM 74.3 °F - 25.2 °F 16% 29.90 in 10.0 mi WSW 4.6 mph - N/A   Mostly Cloudy
3:47 PM 75.2 °F - 28.4 °F 18% 29.90 in 10.0 mi SSE 13.8 mph 23.0 mph N/A   Partly Cloudy
3:55 PM 75.2 °F - 28.4 °F 18% 29.90 in 10.0 mi South 18.4 mph - N/A   Clear
3:58 PM 73.9 °F - 27.7 °F 18% 29.90 in 10.0 mi South 17.3 mph 23.0 mph N/A   Clear
4:58 PM 74.3 °F - 25.2 °F 16% 29.90 in 10.0 mi South 8.1 mph - N/A   Partly Cloudy
5:58 PM 72.0 °F - 24.8 °F 17% 29.92 in 10.0 mi South 8.1 mph - N/A   Overcast
6:58 PM 68.2 °F - 26.8 °F 21% 29.91 in 10.0 mi NW 5.8 mph - N/A   Mostly Cloudy
7:23 PM 68.0 °F - 26.6 °F 21% 29.88 in 10.0 mi NNE 12.7 mph 21.9 mph N/A Rain Light Rain
7:35 PM 68.0 °F - 28.4 °F 23% 29.88 in 10.0 mi NNE 10.4 mph - N/A   Overcast
7:36 PM 68.0 °F - 28.4 °F 23% 29.88 in 10.0 mi NNE 9.2 mph - N/A Rain Light Rain
7:52 PM 66.2 °F - 28.4 °F 24% 29.89 in 10.0 mi NNE 12.7 mph 19.6 mph N/A   Overcast
7:58 PM 67.5 °F - 25.0 °F 20% 29.87 in 10.0 mi North 3.5 mph - 0.00 in   Overcast
8:58 PM 63.7 °F - 30.7 °F 29% 29.90 in 10.0 mi NNW 11.5 mph - N/A   Mostly Cloudy
9:58 PM 59.5 °F - 32.5 °F 36% 29.90 in 10.0 mi NW 4.6 mph - N/A   Scattered Clouds
10:58 PM 52.9 °F - 33.8 °F 48% 29.91 in 10.0 mi NNW 5.8 mph - N/A   Scattered Clouds
11:58 PM 50.7 °F - 33.8 °F 52% 29.93 in 10.0 mi North 8.1 mph - N/A   Overcast